Weather in Nyazepetrovsk

Russia / Chelyabinsk Oblast     56°03′13″N   59°36′34″E
temp.,
°C
wind,
m/s
gust,
m/s
humid.,
%
clouds,
%
prec.,
mm/h
press.,
hPa
HPBL,
m
20 april, tue
tue2023:00−3s11560 0.0 103410
02:00−4w00580 0.0 103510
05:00−4w11579 0.0 103610
08:000wnw12435 0.0 1035284
11:00+4wnw23315 0.0 10341238
14:00+6wnw34315 0.0 10321538
17:00+7wnw45340 0.0 10311525
20:00+3wnw24540 0.0 103159
21 april, wed
wed2123:000wnw11620 0.0 103210
02:000w11650 0.0 103210
05:00−1wsw11680 0.0 103310
08:00+2w12550 0.0 1033217
11:00+8nw22410 0.0 1032915
14:00+11nnw11350 0.0 10311189
17:00+11s22335 0.0 10311412
20:00+7ese114985 0.0 103110
22 april, thu
thu2223:00+4ese226344 0.0 103214
02:00+3ese216779 0.0 103312
05:00+2se1169100 0.0 103410
08:00+4ese1259100 0.0 1033109
11:00+9s3540100 0.0 1032673
14:00+10s4638100 0.0 10321022
17:00+10s4541100 0.0 1032997
20:00+7sse2653100 0.0 1032120
23 april, fri
fri2323:00+4sse246483 0.0 103280
02:00+4s1166100 0.0 103212
05:00+4ssw1169100 0.0 103218
08:00+4s3983100 0.7 1032731
11:00+6ssw3783100 0.9 1031825
14:00+5s3691100 0.3 1031707
17:00+9ssw1366100 0.4 10301021
20:00+7ese1180100 0.1 103020
24 april, sat
sat2423:00+6e1185100 0.1 102817
02:00+6ese2586100 0.0 1027156
05:00+6ese1395100 0.6 102680
08:00+6se3692100 0.6 1025859
11:00+8sse3778100 1.0 10241037
14:00+8se4976100 0.5 10221151
17:00+7se4982100 1.1 10211107
20:00+6ese3891100 1.1 1020849